LSGM7: Little Sugar Creek nr Pineville 7SW

                                SHEF ID:       LSGM7     Little Sugar Creek near Pinevill
STATION TYPE:

PRECIP STAGE STAGE(2) RIV-FLOW VOLTAGE
in ft ft cfs volt
Ccp-Rev Ccp-Rev Ccp-Rev Ccp-Rev Ccp-Rev
(America/Chicago)
04/27 00:00 0.00 3.20 3.01 367 12.47
04/27 01:00 0.00 3.19 3.00 364 12.47
04/27 02:00 0.00 3.18 2.98 360 12.47
04/27 03:00 0.00 3.16 2.97 354 12.47
04/27 04:00 0.00 3.16 2.96 354 12.47
04/27 05:00 0.00 3.15 2.95 350 12.47
04/27 06:00 0.00 3.13 2.94 343 12.47
04/27 07:00 0.00 3.13 2.93 343 12.47
04/27 08:00 0.00 3.11 2.91 337 12.47
04/27 09:00 0.00 3.10 2.88 333 12.71
04/27 10:00 0.00 3.09 2.87 330 12.71
04/27 11:00 0.00 3.08 2.87 327 12.94
04/27 12:00 0.00 3.07 2.90 324 12.71
04/27 13:00 0.00 3.06 2.90 320 12.71
04/27 14:00 0.00 3.06 2.88 320 12.71
04/27 15:00 0.00 3.04 2.86 314 12.71
04/27 16:00 0.00 3.03 2.86 311 12.71
04/27 17:00 0.10 3.05 2.87 317 12.71
04/27 18:00 0.00 3.04 2.87 314 12.71
04/27 19:00 0.00 3.02 2.86 308 12.71
04/27 20:00 0.00 3.01 2.84 305 12.47
04/27 21:00 0.00 3.00 2.82 302 12.47
04/27 22:00 0.00 2.99 2.83 298 12.47
04/27 23:00 ---- 2.99 2.82 ---- 12.47
Data processed at Tue 28Apr2026 04:30 GMT

NOTICE: If you are parsing this page

Please convert to using our Data API. Starting early 2026 we will be migrating to: https://water.usace.army.mil with modern pages rendered in JavaScript. When this migration completes you will no longer be able to scrape this page! CWMSDataAPI (CDA)

Timeseries IDs (TSIDs)

TSIDs used from left to right in the data table
PINV.Precip-Inc.Total.1Hour.1Hour.Ccp-Rev
PINV.Stage.Inst.1Hour.0.Ccp-Rev
PINV.Stage-Alt.Inst.1Hour.0.Ccp-Rev
PINV.Flow.Inst.1Hour.0.Ccp-Rev
PINV.Volt-Battery.Inst.1Hour.0.Ccp-Rev

                            

All information presented herein is the property of the government of the United States of America and may be revised or deleted at any time without prior notice. Dissemination of this information without the expressed written consent of the Public Affairs Office, Tulsa District U.S. Army Corps of Engineers is strictly prohibited. These data are gathered electronically and, as presented, have NOT undergone any form of quality control. These data are NOT guaranteed to be valid or correct.